Location: ?????????
(54.7630°N, 39.4991°E)
Time: 01:33:51
(UTC+00:00)

MetOp-B - Pass Details

Date: 14 April 2026
Orbit: 818 x 823 km, 98.7° (Epoch: 20 May)

Event Time Altitude Azimuth Distance (km) Brightness Sun altitude
Exits shadow 16:51:02 - 146° (SSE) 3,374 6.8 -4.5°
Rises 16:51:05 0° 146° (SSE) 3,349 6.8 -4.5°
Reaches altitude 10° 16:53:28 10° 142° (SE) 2,420 6.1 -4.8°
Maximum altitude 16:58:41 56° 66° (ENE) 982 4.4 -5.5°
Drops below altitude 10° 17:03:56 10° 350° (N) 2,433 7.1 -6.2°
Sets 17:06:19 0° 346° (NNW) 3,369 8.0 -6.5°
